ARIANE 44LP DEB, 33546

Orbit data source: Space-Track

ARIANE 44LP DEB, 33546 is space debris in HEO originally from a launch on Sun, 11 Dec 1988 UTC launched from the French Guiana (FRGUI). Debris objects in space refer to the collection of defunct objects orbiting the Earth. Examples of debris include non-operational satellites, rocket bodies, and fragments generated from explosions, collisions, or faulty payload assembly.

Loading next visibility...
Identifier
33546, 1988-109V
Orbit
HEO
Country
Flag of FRFR
Related business
Manufacturer
Unknown
Mission
Spacecraft
Bus & Motor
Unknown
Mass
Unknown
Launch date (UTC)
1988-12-11 (37 years ago)
Launch vehicle
Unknown
Launch site
French Guiana (FRGUI)
Object type
Payload
Rocket body
Debris
Shape & HBR
Unknown shape, 1.1 m
Radar Cross Section
Small (<0.1 m²)

Expand to show TLE details & history
Last TLE update: 19 hours ago

TLE from 19 hours ago
0 ARIANE 44LP DEB
1 33546U 88109V   25287.91544794 -.00000186  00000-0  31342-2 0  9995
2 33546   7.3625 332.0027 7127326 230.0437  83.8796  2.23376526 15968
Epoch: 2025-10-14T21:58Z
TLE epoch observation values (Epoch: 2025-10-14T21:58:14.702Z)
Latitude
2.9113°
Longitude
1.78854°
Altitude
27,022.596 km
Speed
2.783 km/s
True Right ascension
23h 40m 11s
True Declination
2° 54' 27"
Sunlit
Object was in daylight at epoch
Visualization orbit readout
Latitude
Unknown
Longitude
Unknown
Altitude
Unknown
Speed
Unknown
Apparent Right ascension
Unknown
Apparent Declination
Unknown
Sunlit
N/A
Visualization observer readout
Local Sidereal Time
11:59:04
Azimuth
Unknown
Elevation
Unknown
Doppler factor
Unknown
Orbital elements
Apogee altitude
35,968.779 km
Perigee altitude
724.483 km
Semi-major axis
24,724.768 km
Eccentricity
0.71273
Inclination
7.3625°
RAAN
332.0027°
Arg. of periapsis
230.0437°
True anomaly
153.10448°
Mean anomaly
83.8796°
Eccentric anomaly
119.44221°
Mean motion
0.55827 °/min
Orbital period
644.85 mins
BSTAR
0.0031342
Loading maneuver chart data...
Computing Atmospheric mass density...
Loading historical data...
Loading historical data...
Loading historical data...
Loading historical data...
Loading historical data...
Loading historical data...
Loading historical data...

Documentation

Showing up to 5 results
|